Home   Weather   Myrtle Beach   Past weeks

Flag for USA Past Weather in Myrtle Beach, South Carolina, USA — Yesterday and Last 2 Weeks

Now
82 °F

Scattered clouds.


Feels Like: 85 °F
Forecast: 69 / 83 °F
Wind: 14 mph from South

Location: Myrtle Beach Air Force Base

Current Time: Sep 28, 2016 at 4:40:20 PM

Latest Report: Sep 28, 2016 at 3:47 PM


Visibility: 10 mi

Pressure: 29.95 "Hg

Humidity: 58%

Dew Point: 66 °F

Location of Myrtle BeachLocation

Past Weather in Myrtle Beach — Graph

°F

Myrtle Beach Temperature Yesterday

Maximum temperature yesterday: 84 °F (at 1:45 PM)
Minimum temperature yesterday: 72 °F (at 10:55 PM)
Average temperature yesterday: 77 °F

High & Low Weather Summary for the Past Weeks

 TemperatureHumidityPressure
High90 °F (Sep 18, 12:45 PM)79% (Sep 19, 3:35 AM)30.18 "Hg (Sep 19, 3:35 AM)
Low70 °F (Sep 25, 4:35 AM)32% (Sep 15, 7:45 PM)29.87 "Hg (Sep 19, 3:45 PM)
Average76 °F69%30.03 "Hg
* Reported Sep 13 2:45 PM — Sep 28 2:47 PM, Myrtle Beach, Weather by CustomWeather, © 2016

Note: Actual official high and low records may vary slightly from our data, if they occured in-between our weather recording intervals... More about our weather records

Advertising

Myrtle Beach Weather History for the Previous 24 Hours

Scroll right to see more
 ConditionsComfort  
Time TempWeatherWind HumidityBarometerVisibility
2:47 PM
Wed, Sep 28
82 °FBroken clouds.15 mph58%29.98 "Hg10 mi
1:45 PM84 °FScattered clouds.17 mph62%29.98 "Hg10 mi
12:45 PM84 °FScattered clouds.15 mph58%29.98 "Hg10 mi
11:45 AM84 °FScattered clouds.12 mph55%29.98 "Hg10 mi
10:45 AM84 °FScattered clouds.12 mph55%29.99 "Hg10 mi
9:47 AM82 °FPassing clouds.6 mph58%29.99 "Hg10 mi
8:47 AM79 °FPassing clouds.6 mph65%29.97 "Hg10 mi
7:47 AM73 °FPassing clouds.6 mph69%29.96 "Hg10 mi
6:50 AM72 °FPassing clouds.No wind73%29.95 "Hg10 mi
5:53 AM72 °FClear.No wind73%29.94 "Hg10 mi
5:35 AM72 °FClear.No wind73%29.94 "Hg10 mi
5:15 AM70 °FClear.No wind78%29.94 "Hg10 mi
4:55 AM70 °FClear.3 mph78%29.94 "Hg10 mi
4:35 AM72 °FClear.No wind73%29.94 "Hg10 mi
4:15 AM72 °FClear.No wind73%29.94 "Hg10 mi
3:55 AM73 °FPassing clouds.No wind69%29.93 "Hg10 mi
3:35 AM73 °FPassing clouds.No wind69%29.93 "Hg10 mi
3:15 AM73 °FClear.3 mph69%29.93 "Hg10 mi
2:55 AM72 °FClear.3 mph73%29.94 "Hg10 mi
2:35 AM72 °FClear.3 mph73%29.95 "Hg10 mi
2:15 AM72 °FClear.5 mph73%29.94 "Hg10 mi
1:55 AM73 °FClear.No wind69%29.94 "Hg10 mi
1:35 AM72 °FClear.No wind73%29.95 "Hg10 mi
1:15 AM72 °FClear.3 mph73%29.95 "Hg10 mi
12:55 AM72 °FClear.No wind69%29.94 "Hg10 mi
12:35 AM73 °FClear.No wind69%29.94 "Hg10 mi
12:15 AM72 °FClear.No wind69%29.93 "Hg10 mi
11:55 PM
Tue, Sep 27
73 °FClear.No wind65%29.93 "Hg10 mi
11:35 PM73 °FClear.3 mph69%29.93 "Hg10 mi
11:15 PM73 °FClear.No wind69%29.93 "Hg10 mi
10:55 PM72 °FClear.No wind69%29.93 "Hg10 mi
9:45 PM73 °FPassing clouds.No wind69%29.92 "Hg10 mi
8:45 PM75 °FPassing clouds.No wind65%29.92 "Hg10 mi
7:47 PM79 °FPassing clouds.7 mph58%29.90 "Hg10 mi
6:45 PM81 °FScattered clouds.6 mph51%29.90 "Hg10 mi
4:45 PM84 °FScattered clouds.9 mph55%29.89 "Hg10 mi
Weather by CustomWeather, © 2016

See weather overviewHow to use our weather pages